TimeEDT,TemperatureF,Dew PointF,Humidity,Sea Level PressureIn,VisibilityMPH,Wind Direction,Wind SpeedMPH,Gust SpeedMPH,PrecipitationIn,Events,Conditions,WindDirDegrees,DateUTC
12:15 AM,79.2,73.6,83,30.15,10.0,Calm,Calm,-,N/A,,Clear,0,2013-07-18 04:15:00
12:35 AM,78.1,72.5,83,30.14,10.0,Calm,Calm,-,N/A,,Clear,0,2013-07-18 04:35:00
12:55 AM,78.1,72.5,83,30.14,10.0,South,3.5,-,N/A,,Clear,190,2013-07-18 04:55:00
1:15 AM,78.1,72.5,83,30.14,10.0,Calm,Calm,-,N/A,,Clear,0,2013-07-18 05:15:00
1:35 AM,78.1,72.7,83,30.14,10.0,SSW,3.5,-,N/A,,Clear,210,2013-07-18 05:35:00
1:55 AM,78.1,72.5,83,30.14,10.0,Calm,Calm,-,N/A,,Clear,0,2013-07-18 05:55:00
2:15 AM,78.1,72.7,83,30.13,7.0,Calm,Calm,-,N/A,,Clear,0,2013-07-18 06:15:00
2:35 AM,78.1,72.7,83,30.13,7.0,Calm,Calm,-,N/A,,Clear,0,2013-07-18 06:35:00
2:55 AM,78.1,72.7,83,30.13,7.0,Calm,Calm,-,N/A,,Clear,0,2013-07-18 06:55:00
3:15 AM,78.1,72.7,83,30.12,5.0,Calm,Calm,-,N/A,,Clear,0,2013-07-18 07:15:00
3:35 AM,78.1,72.7,83,30.13,5.0,Calm,Calm,-,N/A,,Clear,0,2013-07-18 07:35:00
3:55 AM,75.0,69.8,84,30.13,4.0,Calm,Calm,-,N/A,,Clear,0,2013-07-18 07:55:00
4:15 AM,75.6,70.2,83,30.12,3.0,Calm,Calm,-,N/A,,Haze,0,2013-07-18 08:15:00
4:35 AM,74.3,69.1,84,30.12,2.5,Calm,Calm,-,N/A,,Clear,0,2013-07-18 08:35:00
4:55 AM,74.3,69.1,84,30.12,3.0,Calm,Calm,-,N/A,,Haze,0,2013-07-18 08:55:00
5:15 AM,74.3,69.1,84,30.12,4.0,Calm,Calm,-,N/A,,Haze,0,2013-07-18 09:15:00
5:35 AM,75.4,70.2,84,30.13,4.0,Calm,Calm,-,N/A,,Haze,0,2013-07-18 09:35:00
5:55 AM,75.6,70.2,83,30.13,4.0,Calm,Calm,-,N/A,,Haze,0,2013-07-18 09:55:00
6:15 AM,75.4,70.0,83,30.13,4.0,Calm,Calm,-,N/A,,Clear,0,2013-07-18 10:15:00
6:35 AM,74.7,69.4,84,30.14,4.0,Calm,Calm,-,N/A,,Clear,0,2013-07-18 10:35:00
6:55 AM,76.1,70.7,83,30.14,4.0,Calm,Calm,-,N/A,,Clear,0,2013-07-18 10:55:00
7:15 AM,78.1,72.7,83,30.14,5.0,Calm,Calm,-,N/A,,Clear,0,2013-07-18 11:15:00
7:35 AM,78.1,72.7,83,30.14,7.0,Calm,Calm,-,N/A,,Clear,0,2013-07-18 11:35:00
7:55 AM,78.3,72.9,83,30.14,7.0,Calm,Calm,-,N/A,,Clear,0,2013-07-18 11:55:00
8:15 AM,80.8,75.2,83,30.14,10.0,Calm,Calm,-,N/A,,Clear,0,2013-07-18 12:15:00
8:35 AM,80.8,74.5,81,30.14,10.0,SW,4.6,-,N/A,,Clear,230,2013-07-18 12:35:00
8:55 AM,83.3,76.3,79,30.14,10.0,Calm,Calm,-,N/A,,Clear,0,2013-07-18 12:55:00
9:15 AM,83.3,76.1,79,30.14,10.0,WSW,3.5,-,N/A,,Clear,250,2013-07-18 13:15:00
9:35 AM,83.5,76.3,79,30.14,10.0,West,3.5,-,N/A,,Clear,260,2013-07-18 13:35:00
9:55 AM,84.6,77.0,78,30.14,10.0,West,3.5,-,N/A,,Clear,280,2013-07-18 13:55:00
10:15 AM,84.7,77.2,78,30.14,10.0,Calm,Calm,-,N/A,,Clear,0,2013-07-18 14:15:00
10:35 AM,86.0,77.7,76,30.14,10.0,Calm,Calm,-,N/A,,Clear,0,2013-07-18 14:35:00
10:55 AM,86.2,77.5,75,30.15,10.0,WNW,3.5,-,N/A,,Clear,290,2013-07-18 14:55:00
11:15 AM,86.0,77.0,74,30.14,10.0,Calm,Calm,-,N/A,,Clear,0,2013-07-18 15:15:00
11:35 AM,86.9,75.4,68,30.14,10.0,Calm,Calm,-,N/A,,Clear,0,2013-07-18 15:35:00
11:55 AM,87.6,76.3,69,30.14,10.0,Calm,Calm,-,N/A,,Clear,0,2013-07-18 15:55:00
12:15 PM,88.9,75.7,65,30.14,10.0,Calm,Calm,-,N/A,,Clear,0,2013-07-18 16:15:00
12:35 PM,88.2,75.6,66,30.14,10.0,Calm,Calm,-,N/A,,Clear,0,2013-07-18 16:35:00
12:55 PM,90.7,75.4,61,30.13,10.0,West,4.6,-,N/A,,Clear,270,2013-07-18 16:55:00
1:15 PM,92.5,75.9,58,30.13,10.0,South,3.5,-,N/A,,Clear,180,2013-07-18 17:15:00
1:35 PM,93.4,75.2,55,30.13,10.0,Calm,Calm,-,N/A,,Clear,0,2013-07-18 17:35:00
1:55 PM,93.0,72.9,52,30.12,10.0,Calm,Calm,-,N/A,,Scattered Clouds,0,2013-07-18 17:55:00
2:15 PM,93.4,73.9,53,30.11,10.0,WSW,3.5,-,N/A,,Scattered Clouds,240,2013-07-18 18:15:00
2:35 PM,93.4,73.6,52,30.11,10.0,Calm,Calm,-,N/A,,Clear,0,2013-07-18 18:35:00
2:55 PM,93.4,72.7,51,30.10,10.0,Calm,Calm,-,N/A,,Scattered Clouds,0,2013-07-18 18:55:00
3:15 PM,93.4,72.5,50,30.09,10.0,Calm,Calm,-,N/A,,Scattered Clouds,0,2013-07-18 19:15:00
3:35 PM,91.0,72.3,54,30.09,10.0,Calm,Calm,-,N/A,,Scattered Clouds,0,2013-07-18 19:35:00
3:55 PM,93.4,74.8,55,30.08,10.0,SE,4.6,-,N/A,,Clear,130,2013-07-18 19:55:00
4:15 PM,93.4,73.9,53,30.08,10.0,SE,3.5,-,N/A,,Clear,130,2013-07-18 20:15:00
4:35 PM,93.4,73.4,52,30.08,10.0,Calm,Calm,-,N/A,,Clear,0,2013-07-18 20:35:00
4:55 PM,93.4,72.1,50,30.07,10.0,Calm,Calm,-,N/A,,Scattered Clouds,0,2013-07-18 20:55:00
5:15 PM,93.4,74.8,55,30.07,10.0,East,3.5,-,N/A,,Scattered Clouds,90,2013-07-18 21:15:00
6:15 PM,91.6,71.8,52,30.06,10.0,ENE,3.5,-,N/A,,Clear,70,2013-07-18 22:15:00
6:35 PM,93.4,73.6,52,30.06,10.0,SE,3.5,-,N/A,,Clear,140,2013-07-18 22:35:00
6:55 PM,87.3,74.8,66,30.06,10.0,SSE,8.1,-,N/A,,Clear,160,2013-07-18 22:55:00
7:15 PM,86.0,75.4,70,30.06,10.0,SSE,6.9,-,N/A,,Clear,160,2013-07-18 23:15:00
7:35 PM,85.6,76.1,73,30.07,10.0,SSE,5.8,-,N/A,,Clear,160,2013-07-18 23:35:00
7:55 PM,84.7,75.2,73,30.07,10.0,South,6.9,-,N/A,,Clear,190,2013-07-18 23:55:00
8:15 PM,84.2,75.4,75,30.07,10.0,South,3.5,-,N/A,,Clear,170,2013-07-19 00:15:00
8:35 PM,83.3,74.7,75,30.08,10.0,South,3.5,-,N/A,,Clear,180,2013-07-19 00:35:00
8:55 PM,83.3,75.2,76,30.09,10.0,South,3.5,-,N/A,,Clear,190,2013-07-19 00:55:00
9:15 PM,83.3,75.4,77,30.10,10.0,South,4.6,-,N/A,,Clear,170,2013-07-19 01:15:00
9:35 PM,83.3,76.1,79,30.10,10.0,South,6.9,-,N/A,,Clear,190,2013-07-19 01:35:00
9:55 PM,81.5,73.9,78,30.11,10.0,South,4.6,-,N/A,,Clear,180,2013-07-19 01:55:00
10:15 PM,80.8,73.4,78,30.12,10.0,SSW,4.6,-,N/A,,Clear,200,2013-07-19 02:15:00
10:35 PM,80.8,73.8,79,30.11,10.0,South,3.5,-,N/A,,Clear,180,2013-07-19 02:35:00
10:55 PM,80.8,74.3,81,30.11,10.0,South,5.8,-,N/A,,Clear,190,2013-07-19 02:55:00
11:15 PM,80.8,74.3,81,30.12,10.0,SSW,3.5,-,N/A,,Clear,200,2013-07-19 03:15:00
11:35 PM,80.8,74.3,81,30.12,10.0,SSW,3.5,-,N/A,,Clear,210,2013-07-19 03:35:00
11:55 PM,79.3,73.0,81,30.12,10.0,South,4.6,-,N/A,,Clear,190,2013-07-19 03:55:00